Change the Weather History Date:

Friday, March 29, 2013

  Actual Average Record
Temperature  
Mean Temperature 58 °F -  
Max Temperature 73 °F 60 °F 84 °F (2012)
Min Temperature 44 °F 35 °F 17 °F (2009)
Degree Days  
Heating Degree Days 6    
Growing Degree Days 8 (Base 50)    
Moisture  
Dew Point 46 °F    
Average Humidity 66    
Maximum Humidity 85    
Minimum Humidity 44    
Precipitation  
Precipitation 0.00 in - - ()
Sea Level Pressure  
Sea Level Pressure 30.07 in    
Wind  
Wind Speed 5 mph (East)    
Max Wind Speed 14 mph    
Max Gust Speed 22 mph    
Visibility 9 miles    
Events      
Averages and records for this station are not official NWS values.
T = Trace of Precipitation, MM = Missing Value Source: NWS Daily Summary

Daily Weather History Graph

Daily Weather History Graph

Search for Another Location

Airport or City:

Trip Planner

Search our weather history database for the weather conditions in past years. The results will help you decide how hot, cold, wet, or windy it might be!

Date:

Astronomy

Mar. 29, 2013 Rise Set
Actual Time 7:20 AM CDT 7:52 PM CDT
Civil Twilight 6:54 AM CDT 8:18 PM CDT
Nautical Twilight 6:23 AM CDT 8:49 PM CDT
Astronomical Twilight 5:51 AM CDT 9:21 PM CDT
Moon 10:50 PM CDT (3/29) 8:33 AM CDT (3/29)
Length of Visible Light 13h 24m
Length of Day
12h 31m
Waning Gibbous, 93% of the Moon is Illuminated
Mar 29
Waning Gibbous
Apr 2
Last Quarter
Apr 10
New
Apr 18
First Quarter
Apr 25
Full

Hourly Weather History & Observations

Time (CDT) Temp. Windchill Dew Point Humidity Pressure Visibility Wind Dir Wind Speed Gust Speed Precip Events Conditions
12:52 AM 50.0 °F - 42.1 °F 74% 30.10 in 10.0 mi Calm Calm - N/A   Mostly Cloudy
1:52 AM 48.9 °F - 41.0 °F 74% 30.09 in 10.0 mi NNE 3.5 mph - N/A   Clear
2:52 AM 48.9 °F - 42.1 °F 77% 30.09 in 10.0 mi ENE 5.8 mph - N/A   Clear
3:52 AM 48.9 °F - 42.1 °F 77% 30.09 in 9.0 mi NE 4.6 mph - N/A   Mostly Cloudy
4:52 AM 48.0 °F - 42.1 °F 80% 30.08 in 9.0 mi Calm Calm - N/A   Clear
5:52 AM 46.0 °F - 41.0 °F 83% 30.09 in 7.0 mi Calm Calm - N/A   Clear
6:52 AM 45.0 °F 41.8 °F 39.9 °F 82% 30.10 in 8.0 mi NE 5.8 mph - N/A   Clear
7:52 AM 44.1 °F 41.5 °F 39.9 °F 85% 30.12 in 5.0 mi ENE 4.6 mph - N/A   Clear
8:52 AM 50.0 °F - 45.0 °F 83% 30.13 in 6.0 mi ENE 6.9 mph - N/A   Haze
9:52 AM 55.9 °F - 46.9 °F 72% 30.13 in 8.0 mi East 4.6 mph - N/A   Clear
10:52 AM 62.1 °F - 48.0 °F 60% 30.12 in 8.0 mi East 5.8 mph - N/A   Scattered Clouds
11:52 AM 68.0 °F - 48.9 °F 50% 30.09 in 9.0 mi East 9.2 mph - N/A   Scattered Clouds
12:52 PM 70.0 °F - 48.9 °F 47% 30.08 in 10.0 mi East 11.5 mph - N/A   Clear
1:52 PM 72.0 °F - 48.9 °F 44% 30.06 in 10.0 mi East 10.4 mph 19.6 mph N/A   Clear
2:52 PM 72.0 °F - 48.9 °F 44% 30.04 in 10.0 mi ESE 10.4 mph 21.9 mph N/A   Clear
3:52 PM 73.0 °F - 50.0 °F 44% 30.03 in 10.0 mi ESE 13.8 mph 21.9 mph N/A   Partly Cloudy
4:52 PM 72.0 °F - 48.9 °F 44% 30.01 in 10.0 mi ESE 11.5 mph - N/A   Partly Cloudy
5:52 PM 71.1 °F - 48.9 °F 45% 30.02 in 10.0 mi SSE 13.8 mph - N/A   Partly Cloudy
6:52 PM 70.0 °F - 48.9 °F 47% 30.02 in 10.0 mi SSE 11.5 mph - N/A   Clear
7:52 PM 64.0 °F - 51.1 °F 63% 30.02 in 10.0 mi SSE 8.1 mph - N/A   Clear
8:52 PM 57.9 °F - 48.9 °F 72% 30.02 in 10.0 mi ESE 5.8 mph - N/A   Clear
9:52 PM 59.0 °F - 51.1 °F 75% 30.03 in 10.0 mi ESE 9.2 mph - N/A   Clear
10:52 PM 57.9 °F - 51.1 °F 78% 30.02 in 9.0 mi SE 9.2 mph - N/A   Clear
11:52 PM 55.9 °F - 50.0 °F 80% 29.99 in 9.0 mi SE 8.1 mph - N/A   Clear